Weather History for Dayton, OH

Change the Weather History Date:

Sunday, March 10, 2013

  Actual Average Record
Temperature  
Mean Temperature 57 °F 38 °F  
Max Temperature 66 °F 47 °F 76 °F (2009)
Min Temperature 48 °F 29 °F 7 °F (1984)
Degree Days  
Heating Degree Days 8 27  
Month to date heating degree days 307 285  
Since 1 July heating degree days 4357 4560  
Cooling Degree Days 0 0  
Month to date cooling degree days 0 0  
Year to date cooling degree days 0 0  
Growing Degree Days 6 (Base 50)    
Moisture  
Dew Point 34 °F    
Average Humidity 43    
Maximum Humidity 55    
Minimum Humidity 30    
Precipitation  
Precipitation 0.02 in 0.10 in 1.56 in (1952)
Month to date precipitation 0.77 0.93  
Year to date precipitation 5.16 5.88  
Snow  
Snow 0.00 in 0.10 in 4.10 in (1949)
Month to date snowfall 5.3 1.5  
Since 1 July snowfall 27.0 20.8  
Snow Depth 0.00 in    
Sea Level Pressure  
Sea Level Pressure 29.95 in    
Wind  
Wind Speed 14 mph (South)    
Max Wind Speed 30 mph    
Max Gust Speed 41 mph    
Visibility 10 miles    
Events Rain    
T = Trace of Precipitation, MM = Missing Value Source: NWS Daily Summary

Daily Weather History Graph

Daily Weather History Graph

Search for Another Location

Airport:

Trip Planner

Search our weather history database for the weather conditions in past years. The results will help you decide how hot, cold, wet, or windy it might be!

Date:

Astronomy

Mar. 10, 2013 Rise Set
Actual Time 7:55 AM EDT 7:38 PM EDT
Civil Twilight 7:28 AM EDT 8:05 PM EDT
Nautical Twilight 6:57 AM EDT 8:37 PM EDT
Astronomical Twilight 6:26 AM EDT 9:08 PM EDT
Moon 6:55 AM EDT (3/10) 6:45 PM EDT (3/10)
Length of Visible Light 12h 36m
Length of Day
11h 42m
Waning Crescent, 2% of the Moon is Illuminated
Mar 10
Waning Crescent
Mar 11
New
Mar 19
First Quarter
Mar 27
Full
Apr 3
Last Quarter

Hourly Weather History & Observations

Time (EDT) Temp. Dew Point Humidity Pressure Visibility Wind Dir Wind Speed Gust Speed Precip Events Conditions
12:56 AM 50.0 °F 30.9 °F 48% 30.02 in 10.0 mi SSE 13.8 mph - N/A   Mostly Cloudy
1:56 AM 48.9 °F 32.0 °F 52% 30.02 in 10.0 mi SSE 8.1 mph - N/A   Overcast
3:56 AM 48.9 °F 32.0 °F 52% 30.00 in 10.0 mi South 9.2 mph - N/A   Mostly Cloudy
4:56 AM 51.1 °F 32.0 °F 48% 29.99 in 10.0 mi South 10.4 mph - N/A   Mostly Cloudy
5:56 AM 51.1 °F 33.1 °F 50% 29.99 in 10.0 mi South 10.4 mph - N/A   Mostly Cloudy
6:56 AM 52.0 °F 32.0 °F 47% 30.01 in 10.0 mi South 13.8 mph - N/A   Mostly Cloudy
8:56 AM 52.0 °F 33.1 °F 49% 30.03 in 10.0 mi South 13.8 mph - N/A   Mostly Cloudy
9:56 AM 54.0 °F 33.1 °F 45% 30.03 in 10.0 mi South 17.3 mph - N/A   Mostly Cloudy
10:56 AM 55.9 °F 34.0 °F 44% 30.01 in 10.0 mi South 16.1 mph - N/A   Mostly Cloudy
11:56 AM 57.9 °F 35.1 °F 42% 30.00 in 10.0 mi South 13.8 mph 21.9 mph N/A   Overcast
12:56 PM 60.1 °F 36.0 °F 41% 29.98 in 10.0 mi South 17.3 mph 25.3 mph N/A   Overcast
1:56 PM 62.1 °F 36.0 °F 38% 29.97 in 10.0 mi South 18.4 mph 25.3 mph N/A   Overcast
2:56 PM 64.0 °F 34.0 °F 33% 29.96 in 10.0 mi SSW 18.4 mph 27.6 mph N/A   Mostly Cloudy
3:56 PM 64.0 °F 34.0 °F 33% 29.92 in 10.0 mi South 16.1 mph 23.0 mph N/A   Mostly Cloudy
4:56 PM 64.9 °F 34.0 °F 32% 29.90 in 10.0 mi South 19.6 mph 28.8 mph N/A   Mostly Cloudy
5:56 PM 64.9 °F 32.0 °F 29% 29.90 in 10.0 mi SSE 12.7 mph 24.2 mph N/A   Mostly Cloudy
6:56 PM 62.1 °F 35.1 °F 37% 29.87 in 10.0 mi SSE 12.7 mph - N/A   Mostly Cloudy
7:56 PM 59.0 °F 35.1 °F 41% 29.86 in 10.0 mi SSE 12.7 mph - N/A   Overcast
8:56 PM 61.0 °F 35.1 °F 38% 29.86 in 10.0 mi SSE 11.5 mph - N/A   Overcast
9:56 PM 59.0 °F 36.0 °F 42% 29.84 in 10.0 mi SSE 11.5 mph - N/A   Overcast
10:56 PM 61.0 °F 35.1 °F 38% 29.86 in 10.0 mi South 10.4 mph - 0.00 in Rain Light Rain
11:56 PM 57.9 °F 41.0 °F 53% 29.86 in 10.0 mi SSW 11.5 mph 23.0 mph 0.00 in Rain Light Rain
12:56 AM 55.9 °F 43.0 °F 62% 29.84 in 10.0 mi South 13.8 mph - 0.02 in Rain Light Rain